North Myrtle Beach, SC

9:52 PM EST on November 21, 2019 (GMT -0500)
Grand Strand

Weather History for KCRE - August, 2019

Change the Weather History Date:

Tuesday, August 20, 2019

  Actual Average Record
Temperature  
Mean Temperature 82 °F 79 °F  
Max Temperature 87 °F 86 °F 95 °F (2005)
Min Temperature 76 °F 72 °F 61 °F (1943)
Degree Days  
Heating Degree Days 0 0  
Month to date heating degree days 0 0  
Since 1 June heating degree days 0 0  
Since 1 July heating degree days 0 0  
Cooling Degree Days 17 14  
Month to date cooling degree days 330 285  
Year to date cooling degree days 1622 1330  
Since 1 June cooling degree days 1229 1118  
Growing Degree Days 31 (Base 50)    
Moisture  
Dew Point 75 °F    
Average Humidity 82    
Maximum Humidity 94    
Minimum Humidity 70    
Precipitation  
Precipitation 0.00 in 0.28 in 1.58 in (1949)
Month to date precipitation 7.99 4.46  
Year to date precipitation 31.00 32.40  
Sea Level Pressure  
Sea Level Pressure 30.12 in    
Wind  
Wind Speed 8 mph (SSW)    
Max Wind Speed 15 mph    
Max Gust Speed 19 mph    
Visibility 10 miles    
Events Thunderstorm    
T = Trace of Precipitation, MM = Missing Value Source: NWS Daily Summary

Daily Weather History Graph

Daily Weather History Graph

Search for Another Location

Airport or City:

Astronomy

Aug. 20, 2019 Rise Set
Actual Time 6:40 AM EDT 7:55 PM EDT
Civil Twilight 6:14 AM EDT 8:21 PM EDT
Nautical Twilight 5:42 AM EDT 8:52 PM EDT
Astronomical Twilight 5:10 AM EDT 9:25 PM EDT
Moon 10:57 PM EDT (8/20) 11:04 AM EDT (8/20)
Length of Visible Light 14h 07m
Length of Day
13h 15m
Waning Gibbous, 78% of the Moon is Illuminated
Aug 20
Waning Gibbous
Aug 23
Last Quarter
Aug 30
New
Sep 5
First Quarter
Sep 14
Full

Hourly Weather History & Observations

Time (EDT) Temp. Heat Index Dew Point Humidity Pressure Visibility Wind Dir Wind Speed Gust Speed Precip Events Conditions
12:53 AM 82.0 °F 87.9 °F 73.9 °F 76% 30.09 in 10.0 mi WSW 9.2 mph - N/A   Clear
1:53 AM 81.0 °F 86.2 °F 73.9 °F 79% 30.10 in 10.0 mi West 3.5 mph - N/A   Clear
2:53 AM 79.0 °F - 73.9 °F 84% 30.09 in 10.0 mi WSW 3.5 mph - N/A   Clear
3:53 AM 79.0 °F - 73.9 °F 84% 30.11 in 10.0 mi WSW 4.6 mph - N/A   Clear
4:53 AM 78.1 °F - 73.9 °F 87% 30.11 in 10.0 mi Calm Calm - N/A   Clear
6:53 AM 75.9 °F - 73.0 °F 91% 30.13 in 10.0 mi Calm Calm - N/A   Clear
7:53 AM 80.1 °F 85.1 °F 75.0 °F 85% 30.14 in 10.0 mi WSW 3.5 mph - N/A   Clear
8:53 AM 82.0 °F 87.9 °F 73.9 °F 76% 30.14 in 10.0 mi Calm Calm - N/A   Clear
9:53 AM 84.9 °F 92.1 °F 73.9 °F 69% 30.15 in 10.0 mi SW 8.1 mph - N/A   Partly Cloudy
10:53 AM 84.9 °F 93.3 °F 75.0 °F 72% 30.16 in 10.0 mi South 8.1 mph - N/A   Clear
11:53 AM 86.0 °F 95.1 °F 75.0 °F 70% 30.16 in 10.0 mi South 11.5 mph - N/A   Clear
12:53 PM 86.0 °F 96.0 °F 75.9 °F 72% 30.14 in 10.0 mi South 11.5 mph - N/A   Clear
1:42 PM 86.0 °F 96.0 °F 75.9 °F 72% 30.15 in 10.0 mi South 11.5 mph - N/A Thunderstorm Clear
1:53 PM 87.1 °F 98.8 °F 77.0 °F 72% 30.15 in 10.0 mi South 12.7 mph 18.4 mph N/A   Clear
2:36 PM 87.1 °F 98.8 °F 77.0 °F 72% 30.14 in 10.0 mi SSW 9.2 mph - N/A Thunderstorm Thunderstorm
2:49 PM 84.2 °F 92.3 °F 75.2 °F 74% 30.14 in 10.0 mi SSW 8.1 mph - N/A   Clear
2:53 PM 86.0 °F 96.9 °F 77.0 °F 74% 30.14 in 10.0 mi SSW 11.5 mph - N/A   Clear
3:53 PM 84.9 °F 94.1 °F 75.9 °F 74% 30.12 in 10.0 mi South 9.2 mph - N/A   Partly Cloudy
4:53 PM 84.9 °F 94.1 °F 75.9 °F 74% 30.11 in 10.0 mi SSW 11.5 mph - N/A   Partly Cloudy
5:53 PM 84.9 °F 94.1 °F 75.9 °F 74% 30.11 in 10.0 mi South 10.4 mph - N/A   Scattered Clouds
6:53 PM 84.9 °F 94.1 °F 75.9 °F 74% 30.10 in 10.0 mi South 9.2 mph - N/A   Clear
7:53 PM 84.0 °F 92.6 °F 75.9 °F 76% 30.09 in 10.0 mi South 11.5 mph - N/A   Partly Cloudy
8:53 PM 84.0 °F 92.6 °F 75.9 °F 76% 30.10 in 10.0 mi SSW 12.7 mph - N/A   Partly Cloudy
9:53 PM 82.9 °F 90.2 °F 75.0 °F 77% 30.12 in 10.0 mi SSW 13.8 mph - N/A   Clear
10:53 PM 82.9 °F 90.2 °F 75.0 °F 77% 30.13 in 10.0 mi SSW 11.5 mph - N/A   Partly Cloudy
11:53 PM 82.9 °F 89.4 °F 73.9 °F 74% 30.12 in 10.0 mi SSW 12.7 mph - N/A   Clear